When you browse on this site, cookies collect data to enhance your experience and personalize the content and advertising you see.
Visit our Privacy Policy to learn more. By continuing to use the site, you agree to this use of cookies and data.
  • In United Kingdom
  • List of Countries
  • For 7 days
  • Water Temperature
  • Satellite Maps
  • Weather Map
  • Weather Widgets
  • user-avatar
    Login

    Hourly Weather Knighton

    Today, 19 November, Monday

    Time Temperature Precipitation Wind Pressure Humidity
    00:00 0°C° 0 mm 4 mps 739 mmHg 77%
    01:00 0°C° 0 mm 5 mps 738 mmHg 81%
    02:00 0°C° 0 mm 5 mps 738 mmHg 85%
    03:00 0°C° 0 mm 5 mps 738 mmHg 89%
    04:00 +1°C° 0 mm 5 mps 738 mmHg 90%
    05:00 +1°C° 0 mm 5 mps 737 mmHg 91%
    06:00 +1°C° 0 mm 4 mps 737 mmHg 91%
    07:00 +1°C° 0 mm 5 mps 737 mmHg 88%
    08:00 +1°C° 0 mm 6 mps 737 mmHg 86%
    09:00 +1°C° 0 mm 6 mps 737 mmHg 83%
    10:00 +2°C° 0 mm 7 mps 737 mmHg 79%
    11:00 +3°C° 0 mm 7 mps 737 mmHg 75%
    12:00 +4°C° 0 mm 7 mps 737 mmHg 71%
    13:00 +4°C° 0 mm 7 mps 736 mmHg 73%
    14:00 +3°C° 0 mm 6 mps 736 mmHg 75%
    15:00 +3°C° 0 mm 6 mps 735 mmHg 77%
    16:00 +3°C° 0 mm 6 mps 735 mmHg 79%
    17:00 +2°C° 0 mm 6 mps 735 mmHg 81%
    18:00 +2°C° 0 mm 6 mps 734 mmHg 84%
    19:00 +2°C° 0.1 mm 6 mps 734 mmHg 84%
    20:00 +2°C° 0.1 mm 6 mps 734 mmHg 84%
    21:00 +2°C° 0.1 mm 6 mps 734 mmHg 85%
    22:00 +2°C° 0.1 mm 6 mps 733 mmHg 85%
    23:00 +1°C° 0.1 mm 6 mps 733 mmHg 85%

    Tomorrow, 20 November, Tuesday

    Time Temperature Precipitation Wind Pressure Humidity
    00:00 +1°C° 0.1 mm 6 mps 733 mmHg 85%
    01:00 +1°C° 0 mm 5 mps 732 mmHg 85%
    02:00 0°C° 0 mm 5 mps 732 mmHg 84%
    03:00 0°C° 0 mm 5 mps 732 mmHg 84%
    04:00 0°C° 0 mm 5 mps 731 mmHg 84%
    05:00 0°C° 0 mm 5 mps 731 mmHg 84%
    06:00 -1°C° 0 mm 5 mps 731 mmHg 84%
    07:00 0°C° 0 mm 5 mps 731 mmHg 83%
    08:00 0°C° 0 mm 5 mps 730 mmHg 83%
    09:00 0°C° 0 mm 5 mps 730 mmHg 82%
    10:00 +1°C° 0.1 mm 5 mps 730 mmHg 81%
    11:00 +1°C° 0.1 mm 6 mps 729 mmHg 79%
    12:00 +2°C° 0.1 mm 6 mps 729 mmHg 77%
    13:00 +2°C° 0.3 mm 6 mps 728 mmHg 79%
    14:00 +2°C° 0.3 mm 6 mps 728 mmHg 80%
    15:00 +2°C° 0.3 mm 5 mps 727 mmHg 81%
    16:00 +1°C° 0.3 mm 5 mps 727 mmHg 83%
    17:00 +1°C° 0.3 mm 5 mps 727 mmHg 85%
    18:00 +1°C° 0.3 mm 5 mps 727 mmHg 87%
    19:00 0°C° 0 mm 4 mps 727 mmHg 88%
    20:00 -1°C° 0 mm 4 mps 727 mmHg 90%
    21:00 0°C° 0 mm 3 mps 726 mmHg 91%
    22:00 0°C° 0 mm 3 mps 726 mmHg 92%
    23:00 -1°C° 0 mm 3 mps 726 mmHg 93%

    Day after tomorrow, 21 November, Wednesday

    Time Temperature Precipitation Wind Pressure Humidity
    00:00 -1°C° 0 mm 2 mps 725 mmHg 94%
    01:00 -1°C° 0.2 mm 2 mps 725 mmHg 94%
    02:00 +1°C° 0.2 mm 2 mps 725 mmHg 94%
    03:00 +2°C° 0.2 mm 1 mps 724 mmHg 95%
    04:00 +2°C° 0.3 mm 1 mps 724 mmHg 95%
    05:00 +2°C° 0.3 mm 1 mps 724 mmHg 94%
    06:00 +2°C° 0.3 mm 1 mps 724 mmHg 94%
    07:00 +2°C° 0.1 mm 1 mps 724 mmHg 93%
    08:00 +1°C° 0.1 mm 2 mps 725 mmHg 93%
    09:00 +1°C° 0.1 mm 2 mps 725 mmHg 92%
    10:00 +1°C° 0.1 mm 3 mps 726 mmHg 90%
    11:00 +1°C° 0.1 mm 3 mps 727 mmHg 87%
    12:00 +1°C° 0.1 mm 4 mps 727 mmHg 85%
    13:00 +1°C° 0 mm 4 mps 728 mmHg 85%
    14:00 +2°C° 0 mm 3 mps 728 mmHg 85%
    15:00 +2°C° 0 mm 3 mps 729 mmHg 85%
    16:00 +2°C° 0 mm 3 mps 729 mmHg 88%
    17:00 0°C° 0 mm 4 mps 730 mmHg 90%
    18:00 0°C° 0 mm 4 mps 731 mmHg 92%
    19:00 0°C° 0 mm 4 mps 731 mmHg 92%
    20:00 -1°C° 0 mm 4 mps 732 mmHg 93%
    21:00 -1°C° 0 mm 4 mps 732 mmHg 93%
    22:00 -1°C° 0 mm 4 mps 733 mmHg 93%
    23:00 -1°C° 0 mm 3 mps 733 mmHg 94%

    22 November, Thursday

    Time Temperature Precipitation Wind Pressure Humidity
    00:00 -1°C° 0 mm 3 mps 733 mmHg 94%
    01:00 -2°C° 0 mm 3 mps 733 mmHg 94%
    02:00 -2°C° 0 mm 2 mps 733 mmHg 94%
    03:00 -2°C° 0 mm 2 mps 733 mmHg 94%
    04:00 -3°C° 0 mm 2 mps 734 mmHg 94%
    05:00 -3°C° 0 mm 2 mps 734 mmHg 94%
    06:00 -3°C° 0 mm 2 mps 734 mmHg 94%
    07:00 -3°C° 0 mm 2 mps 734 mmHg 94%
    08:00 -2°C° 0 mm 2 mps 734 mmHg 93%
    09:00 -2°C° 0 mm 2 mps 734 mmHg 93%
    10:00 -1°C° 0 mm 2 mps 734 mmHg 89%
    11:00 +2°C° 0 mm 2 mps 734 mmHg 85%
    12:00 +2°C° 0 mm 3 mps 734 mmHg 82%
    13:00 +2°C° 0 mm 3 mps 734 mmHg 85%
    14:00 +3°C° 0 mm 2 mps 734 mmHg 87%
    15:00 +3°C° 0 mm 2 mps 733 mmHg 90%
    16:00 +3°C° 0 mm 2 mps 733 mmHg 92%
    17:00 +1°C° 0 mm 3 mps 733 mmHg 94%
    18:00 +1°C° 0 mm 3 mps 733 mmHg 96%
    19:00 +1°C° 0 mm 3 mps 733 mmHg 96%
    20:00 +1°C° 0 mm 3 mps 733 mmHg 96%
    21:00 +2°C° 0 mm 3 mps 733 mmHg 95%
    22:00 +1°C° 0 mm 3 mps 733 mmHg 95%
    23:00 +1°C° 0 mm 3 mps 733 mmHg 95%

    23 November, Friday

    Time Temperature Precipitation Wind Pressure Humidity
    00:00 +2°C° 0 mm 2 mps 733 mmHg 95%
    01:00 +2°C° 0 mm 2 mps 733 mmHg 95%
    02:00 +1°C° 0 mm 2 mps 732 mmHg 96%
    03:00 +1°C° 0 mm 2 mps 732 mmHg 96%
    04:00 0°C° 0 mm 3 mps 732 mmHg 96%
    05:00 +1°C° 0 mm 3 mps 732 mmHg 95%
    06:00 +1°C° 0 mm 3 mps 731 mmHg 95%
    07:00 +1°C° 0 mm 3 mps 731 mmHg 95%
    08:00 +2°C° 0 mm 3 mps 732 mmHg 95%
    09:00 +2°C° 0 mm 3 mps 732 mmHg 95%
    10:00 +3°C° 0.1 mm 4 mps 732 mmHg 94%
    11:00 +4°C° 0.1 mm 4 mps 732 mmHg 93%
    12:00 +5°C° 0.1 mm 4 mps 732 mmHg 92%
    13:00 +5°C° 0.1 mm 4 mps 731 mmHg 93%
    14:00 +5°C° 0.1 mm 3 mps 731 mmHg 93%
    15:00 +7°C° 0.1 mm 3 mps 731 mmHg 93%
    16:00 +5°C° 0.1 mm 3 mps 731 mmHg 94%
    17:00 +5°C° 0.1 mm 2 mps 731 mmHg 95%
    18:00 +4°C° 0.1 mm 2 mps 731 mmHg 96%
    19:00 +4°C° 0 mm 2 mps 731 mmHg 96%
    20:00 +4°C° 0 mm 2 mps 731 mmHg 97%
    21:00 +4°C° 0 mm 2 mps 731 mmHg 97%
    22:00 +3°C° 0 mm 2 mps 730 mmHg 97%
    23:00 +3°C° 0 mm 2 mps 730 mmHg 97%

    24 November, Saturday

    Time Temperature Precipitation Wind Pressure Humidity
    00:00 +3°C° 0 mm 2 mps 730 mmHg 97%
    01:00 +4°C° 0 mm 2 mps 730 mmHg 97%
    02:00 +4°C° 0 mm 2 mps 730 mmHg 97%
    03:00 +4°C° 0 mm 2 mps 730 mmHg 98%
    04:00 +4°C° 0.1 mm 2 mps 730 mmHg 97%
    05:00 +4°C° 0.1 mm 2 mps 730 mmHg 97%
    06:00 +4°C° 0.1 mm 2 mps 730 mmHg 97%
    07:00 +3°C° 0.1 mm 3 mps 731 mmHg 97%
    08:00 +4°C° 0.1 mm 3 mps 731 mmHg 97%
    09:00 +4°C° 0.1 mm 3 mps 731 mmHg 96%
    10:00 +4°C° 0 mm 3 mps 731 mmHg 95%
    11:00 +5°C° 0 mm 3 mps 731 mmHg 94%
    12:00 +5°C° 0 mm 3 mps 731 mmHg 92%
    13:00 +5°C° 0.1 mm 3 mps 731 mmHg 93%
    14:00 +6°C° 0.1 mm 2 mps 731 mmHg 94%
    15:00 +6°C° 0.1 mm 2 mps 731 mmHg 94%
    16:00 +5°C° 0.1 mm 2 mps 731 mmHg 95%
    17:00 +5°C° 0.1 mm 2 mps 731 mmHg 96%
    18:00 +4°C° 0.1 mm 3 mps 731 mmHg 97%
    19:00 +4°C° 0 mm 3 mps 731 mmHg 96%
    20:00 +4°C° 0 mm 3 mps 732 mmHg 96%
    21:00 +5°C° 0 mm 2 mps 732 mmHg 96%
    22:00 +4°C° 0.1 mm 2 mps 732 mmHg 96%
    23:00 +4°C° 0.1 mm 2 mps 732 mmHg 96%
    Show more